Tracking 31027 objects as of 19-Jul-2025
HD Live streaming from Space Station
objects crossing your sky now

DELTA 1 DEB

Track DELTA 1 DEB now!
10-day predictions


NORAD ID: 21351
Int'l Code: 1975-052BV
Perigee: 1,098.4 km
Apogee: 1,197.3 km
Inclination: 99.8 °
Period: 108.1 minutes
Semi major axis: 7518 km
RCS: 0.1445 m2 (medium)
Launch date: June 12, 1975
Source: United States (US)
Launch site: AIR FORCE WESTERN TEST RANGE (AFWTR)

Note: This is SATELLITE DEBRIS
Your satellite tracking list
FLOCK 3S 1
Track 1 satellite(s)




NASA's NSSDC Master Catalog

Two Line Element Set (TLE):
1 21351U 75052BV  25199.63910056  .00000011  00000-0  10840-3 0  9995
2 21351  99.8027 334.0226 0065804  37.1830 334.8719 13.31605874659816
Source of the keplerian elements: AFSPC